Flag for Germany Weather past 2 weeks in Mülheim, North Rhine-Westphalia, Germany

Now
57 °F

Passing clouds.


Feels Like: 57 °F
Forecast: 48 / 67 °F
Wind: 5 mph from West

Location: Koeln / Bonn

Current Time: Sep 2, 2015 at 1:01:16 AM

Latest Report: Sep 2, 2015 at 12:20 AM


Visibility: N/A

Pressure: 30.07 "Hg

Humidity: 88%

Dew point: 54 °F

Location of MülheimLocation

Historic Weather in Mülheim — Graph

°F

Mülheim temperature yesterday

Maximum temperature yesterday: 72 °F (at 12:20 AM)
Minimum temperature yesterday: 57 °F (at 9:50 PM)
Average temperature yesterday: 63 °F

Past Weeks' High & Low Weather Summary

 TemperatureHumidityPressure
High93 °F (Aug 30, 4:20 PM)100% (Sep 1, 8:20 AM)30.27 "Hg (Sep 1, 8:20 AM)
Low46 °F (Aug 19, 6:50 AM)26% (Aug 23, 3:20 PM)29.56 "Hg (Aug 24, 2:20 PM)
Average66 °F68%29.98 "Hg
* Reported Aug 17 11:20 PM — Sep 1 11:20 PM, Mülheim, Weather by CustomWeather, © 2015

Note: Actual official high and low records may vary slightly from our data, if they occured in-between our weather recording intervals... More about our weather records

Advertising

Mülheim weather history for previous 24 hours

 ConditionsComfort  
Time TempWeatherWind HumidityBarometerVisibility
11:20 PM
Tue, Sep 1
59 °FPassing clouds.8 mph88%30.04 "HgN/A
10:50 PM59 °FPartly cloudy.3 mph88%30.04 "HgN/A
10:20 PM57 °FFog.2 mph94%30.04 "HgN/A
9:50 PM57 °FPassing clouds.2 mph94%30.04 "HgN/A
9:20 PM59 °FSprinkles. Partly cloudy.3 mph88%30.04 "HgN/A
8:50 PM61 °FSprinkles. Broken clouds.7 mph88%30.04 "HgN/A
8:20 PM61 °FScattered showers. Broken clouds.7 mph88%30.01 "HgN/A
7:50 PM61 °FScattered showers. Scattered clouds.8 mph83%30.01 "HgN/A
7:20 PM63 °FScattered clouds.6 mph83%29.98 "HgN/A
6:50 PM63 °FPartly sunny.5 mph83%29.98 "HgN/A
6:20 PM63 °FPartly sunny.6 mph83%29.98 "HgN/A
5:50 PM63 °FBroken clouds.9 mph83%29.98 "HgN/A
5:20 PM63 °FBroken clouds.9 mph83%29.95 "HgN/A
4:50 PM63 °FBroken clouds.9 mph83%29.95 "HgN/A
4:20 PM63 °FPartly sunny.12 mph88%29.95 "HgN/A
3:50 PM63 °FBroken clouds.14 mph88%29.95 "HgN/A
3:20 PM63 °FLight rain. Broken clouds.13 mph88%29.92 "HgN/A
2:50 PM61 °FLight rain. Broken clouds.13 mph94%29.92 "HgN/A
2:20 PM61 °FLight rain. Mostly cloudy.10 mph94%29.92 "HgN/A
1:50 PM61 °FRain. More clouds than sun.9 mph94%29.89 "HgN/A
1:20 PM61 °FRain. More clouds than sun.10 mph94%29.89 "HgN/A
12:50 PM61 °FRain. More clouds than sun.10 mph94%29.89 "Hg5 mi
12:20 PM61 °FLight rain. Broken clouds.10 mph94%29.86 "HgN/A
11:50 AM61 °FLight rain. Broken clouds.8 mph100%29.86 "HgN/A
11:20 AM61 °FRain. Mostly cloudy.10 mph94%29.83 "Hg6 mi
10:50 AM61 °FRain. Mostly cloudy.12 mph94%29.83 "Hg6 mi
10:20 AM61 °FRain. Fog.12 mph100%29.83 "Hg3 mi
9:50 AM63 °FRain. Mostly cloudy.7 mph94%29.83 "Hg4 mi
9:20 AM63 °FRain. Mostly cloudy.5 mph94%29.80 "Hg5 mi
8:50 AM63 °FRain. Mostly cloudy.5 mph94%29.83 "Hg5 mi
8:20 AM61 °FLight rain. More clouds than sun.6 mph100%29.80 "Hg6 mi
7:50 AM61 °FHeavy rain. Partly sunny.8 mph94%29.83 "Hg2 mi
7:20 AM63 °FHeavy rain. Partly cloudy.9 mph88%29.86 "Hg2 mi
6:50 AM64 °FPassing clouds.7 mph78%29.83 "HgN/A
5:50 AM64 °FOvercast.10 mph83%29.83 "HgN/A
5:20 AM66 °FOvercast.10 mph78%29.83 "HgN/A
4:50 AM66 °FOvercast.12 mph83%29.83 "HgN/A
4:20 AM66 °FPassing clouds.14 mph83%29.83 "HgN/A
3:50 AM68 °FPartly cloudy.17 mph78%29.83 "HgN/A
3:20 AM70 °FPartly cloudy.7 mph83%29.83 "HgN/A
2:50 AM70 °FPartly cloudy.7 mph78%29.83 "HgN/A
2:20 AM70 °FPartly cloudy.7 mph78%29.83 "HgN/A
1:50 AM70 °FPartly cloudy.7 mph78%29.83 "HgN/A
1:20 AM72 °FPartly cloudy.8 mph73%29.86 "HgN/A
Weather by CustomWeather, © 2015

See weather overviewHow to use our weather pages